Location: El Limón
(10.3059°N, 67.6321°W)
Time: 13:12:45
(UTC+00:00)

USA 306 - Pass Details

Date: 14 April 2024
Orbit: 496 x 519 km, 54.0° (Epoch: 15 February)

Event Time Altitude Azimuth Distance (km) Brightness Sun altitude
Exits shadow 09:43:29 - 211° (SSW) 2,220 5.5 -9.7°
Reaches altitude 10° 09:44:49 10° 210° (SSW) 1,686 4.9 -9.4°
Maximum altitude 09:48:41 77° 123° (ESE) 503 2.7 -8.5°
Drops below altitude 10° 09:52:24 10° 37° (NE) 1,625 6.0 -7.6°
Sets 09:54:29 0° 36° (NE) 2,459 7.0 -7.1°
